sat.trackr.live / text

‹ back to catalog

2025-292H

NORAD 67000 · 2025-292H

PAYLOAD ACTIVE UNKNOWN

§ Identity

Operator
Country
PRC
Launch date
2025-12-10
Launch site
JSC
Launch vehicle
Mass (kg)
RCS (m²)

External: N2YO · Heavens-Above · Gunter

§ Orbital elements

Epoch: 2026-09-20T22:39:29.955744Z

Period
95.46 min
Inclination
97.6312°
Eccentricity
0.0015225
Mean motion
15.08504467 rev/d
Perigee alt
530.2 km
Apogee alt
551.3 km
Semi-major
6,918.9 km
B*
2.2766e-4
RAAN
339.4371°
Arg perigee
43.1180°
Mean anomaly
317.1238°
Rev number
4,276

§ Raw data

2025-292H1 67000U 25292H   26263.94409671  .00003495  00000+0  22766-3 0  99982 67000  97.6312 339.4371 0015225  43.1180 317.1238 15.08504467 42769

JSON: /api/v1/satellites/67000 · /tle

For live sub-satellite position, see the globe view (requires WebGL).

§ Visibility from observer

Set your observer location to see the next 7 days of passes ≥ 10°. The values pass through the URL so the page stays shareable.

No JS? Fill the form by hand. The geolocation button needs JavaScript.